Temp: 4.4°C   Baro: 1017.4mb
  Wind: 0.0mph   Dir: NNW (342°)
  Rain: 0.0mm (0.0mm/hr)
  Solar: 0W/m2  Hum: 83%

Historic data

Bath Spa Weather Station Historical Data
Daily Summary for January 19, 2021 Units:  Metric    English   Both
Daily Weekly Monthly Yearly Custom
  High: Low: Average:
Temperature: 12.1 °C 10.7 °C 11.3 °C
Dew Point: 10.9 °C 9.3 °C 10.2 °C
Humidity: 92% 87% 90%
Wind Speed: 9km/h 0km/h 3.7km/h
Wind Gust: 17.7km/h - -
Wind- - NW
Pressure: 1032.4 hPa 1029.7 hPa -
Precipitation: 0 mm    
Historical Graphs
 
 
Tabular Data for January 19, 2021
Time Temperature Dew Point Pressure Wind Wind Speed Wind Gust Humidity Rainfall Rate (Hourly) solar
00:04 11.5 °C 10.6 °C 1031 hPa West 7.9 km/h 12.9 km/h 91% 0 mm 0 W/m2
00:09 11.5 °C 10.6 °C 1031 hPa West 6.6 km/h 17.7 km/h 91% 0 mm 0 W/m2
00:14 11.5 °C 10.6 °C 1031 hPa West 7.4 km/h 11.3 km/h 91% 0 mm 0 W/m2
00:19 11.6 °C 10.7 °C 1031 hPa West 6.3 km/h 11.3 km/h 91% 0 mm 0 W/m2
00:24 11.6 °C 10.7 °C 1031 hPa West 4.7 km/h 9.7 km/h 91% 0 mm 0 W/m2
00:29 11.6 °C 10.7 °C 1031 hPa West 5.3 km/h 11.3 km/h 91% 0 mm 0 W/m2
00:34 11.5 °C 10.6 °C 1031 hPa West 7.7 km/h 11.3 km/h 91% 0 mm 0 W/m2
00:39 11.4 °C 10.6 °C 1031 hPa West 5.6 km/h 11.3 km/h 91% 0 mm 0 W/m2
00:44 11.4 °C 10.5 °C 1031 hPa West 4.2 km/h 12.9 km/h 91% 0 mm 0 W/m2
00:49 11.4 °C 10.5 °C 1031 hPa West 3.9 km/h 11.3 km/h 91% 0 mm 0 W/m2
00:54 11.4 °C 10.6 °C 1031 hPa West 3.9 km/h 9.7 km/h 91.8% 0 mm 0 W/m2
00:59 11.4 °C 10.5 °C 1031 hPa West 6 km/h 9.7 km/h 91.2% 0 mm 0 W/m2
01:04 11.4 °C 10.5 °C 1031 hPa West 6.9 km/h 14.5 km/h 91% 0 mm 0 W/m2
01:09 11.3 °C 10.6 °C 1031 hPa West 6 km/h 11.3 km/h 92% 0 mm 0 W/m2
01:14 11.3 °C 10.5 °C 1031 hPa West 6.8 km/h 14.5 km/h 92% 0 mm 0 W/m2
01:19 11.3 °C 10.5 °C 1031 hPa West 4.2 km/h 12.9 km/h 92% 0 mm 0 W/m2
01:24 11.3 °C 10.5 °C 1031 hPa West 5.1 km/h 9.7 km/h 92% 0 mm 0 W/m2
01:29 11.3 °C 10.5 °C 1031 hPa West 2.3 km/h 8 km/h 92% 0 mm 0 W/m2
01:34 11.3 °C 10.4 °C 1031 hPa West 4.5 km/h 8 km/h 92% 0 mm 0 W/m2
01:39 11.2 °C 10.4 °C 1031 hPa West 5.6 km/h 11.3 km/h 92% 0 mm 0 W/m2
01:44 11.2 °C 10.4 °C 1031 hPa West 6.8 km/h 12.9 km/h 92% 0 mm 0 W/m2
01:49 11.2 °C 10.4 °C 1031 hPa West 5.5 km/h 11.3 km/h 92% 0 mm 0 W/m2
01:54 11.2 °C 10.4 °C 1031 hPa West 6 km/h 9.7 km/h 92% 0 mm 0 W/m2
01:59 11.2 °C 10.3 °C 1031 hPa West 3.7 km/h 9.7 km/h 92% 0 mm 0 W/m2
02:04 11.1 °C 10.3 °C 1031 hPa West 6.8 km/h 11.3 km/h 92% 0 mm 0 W/m2
02:09 11.1 °C 10.3 °C 1031 hPa West 6.9 km/h 11.3 km/h 92% 0 mm 0 W/m2
02:14 11.1 °C 10.3 °C 1031 hPa West 6.1 km/h 9.7 km/h 92% 0 mm 0 W/m2
02:19 11.1 °C 10.3 °C 1031 hPa West 3.9 km/h 8 km/h 92% 0 mm 0 W/m2
02:24 11.1 °C 10.3 °C 1031 hPa West 5.8 km/h 12.9 km/h 92% 0 mm 0 W/m2
02:29 11.1 °C 10.3 °C 1031 hPa West 5.6 km/h 17.7 km/h 92% 0 mm 0 W/m2
02:34 11.2 °C 10.4 °C 1031 hPa West 5.8 km/h 8 km/h 92% 0 mm 0 W/m2
02:39 11.2 °C 10.4 °C 1031 hPa West 6.3 km/h 9.7 km/h 92% 0 mm 0 W/m2
02:44 11.2 °C 10.4 °C 1031 hPa West 3.5 km/h 6.4 km/h 92% 0 mm 0 W/m2
02:49 11.2 °C 10.4 °C 1031 hPa West 2.6 km/h 4.8 km/h 92% 0 mm 0 W/m2
02:54 11.2 °C 10.4 °C 1031 hPa West 4.7 km/h 11.3 km/h 92% 0 mm 0 W/m2
02:59 11.2 °C 10.4 °C 1031 hPa West 4.5 km/h 9.7 km/h 92% 0 mm 0 W/m2
03:04 11.2 °C 10.3 °C 1030.7 hPa West 5.6 km/h 9.7 km/h 92% 0 mm 0 W/m2
03:09 11.1 °C 10.3 °C 1030.7 hPa West 2.7 km/h 6.4 km/h 92% 0 mm 0 W/m2
03:14 11.1 °C 10.3 °C 1030.7 hPa West 5.1 km/h 11.3 km/h 92% 0 mm 0 W/m2
03:19 11.1 °C 10.3 °C 1031 hPa West 6.4 km/h 9.7 km/h 92% 0 mm 0 W/m2
03:24 11.1 °C 10.3 °C 1031 hPa West 4 km/h 9.7 km/h 92% 0 mm 0 W/m2
03:29 11.1 °C 10.3 °C 1030.7 hPa West 5.3 km/h 8 km/h 92% 0 mm 0 W/m2
03:34 11.1 °C 10.3 °C 1030.7 hPa West 4.7 km/h 14.5 km/h 92% 0 mm 0 W/m2
03:39 11.1 °C 10.3 °C 1030.7 hPa West 7.6 km/h 14.5 km/h 92% 0 mm 0 W/m2
03:44 11.1 °C 10.3 °C 1030.7 hPa West 5.8 km/h 14.5 km/h 92% 0 mm 0 W/m2
03:49 11.1 °C 10.3 °C 1030.7 hPa West 5.3 km/h 8 km/h 92% 0 mm 0 W/m2
03:54 11.1 °C 10.3 °C 1030.7 hPa West 8.5 km/h 14.5 km/h 92% 0 mm 0 W/m2
03:59 11.1 °C 10.2 °C 1030.7 hPa West 7.4 km/h 12.9 km/h 92% 0 mm 0 W/m2
04:04 11.1 °C 10.2 °C 1030.7 hPa West 8.7 km/h 14.5 km/h 92% 0 mm 0 W/m2
04:09 11.1 °C 10.2 °C 1030.7 hPa West 5.8 km/h 14.5 km/h 92% 0 mm 0 W/m2
04:14 11 °C 10.2 °C 1030.7 hPa West 7.1 km/h 12.9 km/h 92% 0 mm 0 W/m2
04:19 11 °C 10.2 °C 1030.7 hPa West 6.3 km/h 11.3 km/h 92% 0 mm 0 W/m2
04:24 11 °C 10.2 °C 1030.7 hPa West 6.9 km/h 12.9 km/h 92% 0 mm 0 W/m2
04:29 11.1 °C 10.3 °C 1030.7 hPa West 5 km/h 9.7 km/h 92% 0 mm 0 W/m2
04:34 11.1 °C 10.3 °C 1030.7 hPa West 3.9 km/h 8 km/h 92% 0 mm 0 W/m2
04:39 11.1 °C 10.2 °C 1030.7 hPa West 2.6 km/h 8 km/h 91.6% 0 mm 0 W/m2
04:44 11.1 °C 10.2 °C 1030.7 hPa West 5.8 km/h 9.7 km/h 91% 0 mm 0 W/m2
04:49 11.1 °C 10.2 °C 1030.7 hPa West 6.4 km/h 11.3 km/h 91% 0 mm 0 W/m2
04:54 11 °C 10.1 °C 1030.7 hPa West 3.9 km/h 9.7 km/h 91% 0 mm 0 W/m2
04:59 11 °C 10.1 °C 1030.7 hPa West 7.7 km/h 12.9 km/h 91% 0 mm 0 W/m2
05:04 11.1 °C 10.2 °C 1030.7 hPa West 8 km/h 11.3 km/h 91% 0 mm 0 W/m2
05:09 11.1 °C 10.2 °C 1030.7 hPa West 7.1 km/h 14.5 km/h 91% 0 mm 0 W/m2
05:14 11.1 °C 10.2 °C 1030.7 hPa West 7.7 km/h 11.3 km/h 91% 0 mm 0 W/m2
05:19 11.1 °C 10.2 °C 1030.7 hPa West 6 km/h 16.1 km/h 91% 0 mm 0 W/m2
05:24 11.1 °C 10.2 °C 1030.7 hPa West 5 km/h 9.7 km/h 91% 0 mm 0 W/m2
05:29 11.1 °C 10.2 °C 1030.7 hPa West 4 km/h 8 km/h 91% 0 mm 0 W/m2
05:34 11 °C 10.1 °C 1030.7 hPa West 5 km/h 8 km/h 91% 0 mm 0 W/m2
05:39 11.1 °C 10.2 °C 1030.7 hPa West 3.4 km/h 8 km/h 91% 0 mm 0 W/m2
05:44 11.1 °C 10.2 °C 1031 hPa West 3.4 km/h 9.7 km/h 91% 0 mm 0 W/m2
05:49 11.1 °C 10.2 °C 1031 hPa West 3.2 km/h 6.4 km/h 91% 0 mm 0 W/m2
05:54 11.1 °C 10.2 °C 1031 hPa West 4.8 km/h 8 km/h 91% 0 mm 0 W/m2
05:59 11 °C 10.1 °C 1031 hPa West 5.3 km/h 9.7 km/h 91% 0 mm 0 W/m2
06:04 11 °C 10.1 °C 1031 hPa West 3.4 km/h 9.7 km/h 91% 0 mm 0 W/m2
06:09 10.9 °C 10.1 °C 1031 hPa West 2.4 km/h 6.4 km/h 91% 0 mm 0 W/m2
06:14 10.9 °C 10 °C 1031 hPa West 2.7 km/h 6.4 km/h 91% 0 mm 0 W/m2
06:19 10.9 °C 10 °C 1031 hPa West 1.6 km/h 4.8 km/h 91% 0 mm 0 W/m2
06:24 10.9 °C 10 °C 1031 hPa West 4 km/h 8 km/h 91% 0 mm 0 W/m2
06:29 10.9 °C 10 °C 1031 hPa West 0.6 km/h 6.4 km/h 91% 0 mm 0 W/m2
06:34 10.9 °C 10 °C 1031.4 hPa West 2.6 km/h 6.4 km/h 91% 0 mm 0 W/m2
06:39 10.9 °C 10 °C 1031.4 hPa West 3.9 km/h 8 km/h 91% 0 mm 0 W/m2
06:44 10.9 °C 10 °C 1031.4 hPa West 4.5 km/h 9.7 km/h 91% 0 mm 0 W/m2
06:49 10.9 °C 10 °C 1031.4 hPa West 4.2 km/h 6.4 km/h 91% 0 mm 0 W/m2
06:54 10.9 °C 10 °C 1031.4 hPa West 2.6 km/h 6.4 km/h 91% 0 mm 0 W/m2
06:59 10.9 °C 10 °C 1031.4 hPa West 4.3 km/h 6.4 km/h 91% 0 mm 0 W/m2
07:04 10.9 °C 10 °C 1031.4 hPa West 3.1 km/h 6.4 km/h 91% 0 mm 0 W/m2
07:09 10.9 °C 10 °C 1031.4 hPa West 3.7 km/h 8 km/h 91.2% 0 mm 0 W/m2
07:14 10.9 °C 10.1 °C 1031.4 hPa West 3.4 km/h 8 km/h 91.6% 0 mm 0 W/m2
07:19 10.9 °C 10.1 °C 1031.4 hPa West 2.4 km/h 8 km/h 92% 0 mm 0 W/m2
07:24 10.9 °C 10.1 °C 1031.4 hPa West 2.4 km/h 6.4 km/h 92% 0 mm 0 W/m2
07:29 10.9 °C 10.1 °C 1031.4 hPa West 2.1 km/h 6.4 km/h 92% 0 mm 0 W/m2
07:34 10.9 °C 10.1 °C 1031.4 hPa SW 4 km/h 9.7 km/h 92% 0 mm 0 W/m2
07:39 10.9 °C 10.1 °C 1031.4 hPa SSW 6.6 km/h 11.3 km/h 92% 0 mm 0 W/m2
07:44 10.9 °C 10.1 °C 1031.4 hPa East 3.5 km/h 8 km/h 92% 0 mm 0 W/m2
07:49 10.9 °C 10.1 °C 1031.7 hPa ENE 5.1 km/h 6.4 km/h 92% 0 mm 0 W/m2
07:54 10.9 °C 10.1 °C 1031.7 hPa ENE 5.3 km/h 11.3 km/h 92% 0 mm 0 W/m2
07:59 10.9 °C 10.1 °C 1031.7 hPa NE 5.5 km/h 11.3 km/h 92% 0 mm 0 W/m2
08:04 10.9 °C 10.1 °C 1031.7 hPa NE 5.8 km/h 11.3 km/h 92% 0 mm 0 W/m2
08:09 10.8 °C 10.1 °C 1031.7 hPa NNE 6 km/h 12.9 km/h 92% 0 mm 0 W/m2
08:14 10.9 °C 10.1 °C 1031.7 hPa North 6.3 km/h 14.5 km/h 92% 0 mm 0 W/m2
08:19 10.9 °C 10.1 °C 1031.7 hPa North 4.5 km/h 9.7 km/h 92% 0 mm 0 W/m2
08:24 10.9 °C 10.1 °C 1031.7 hPa North 5.8 km/h 8 km/h 91.4% 0 mm 0 W/m2
08:29 10.9 °C 10 °C 1031.7 hPa North 3.5 km/h 9.7 km/h 91% 0 mm 0 W/m2
08:34 10.9 °C 10 °C 1032.1 hPa North 5 km/h 9.7 km/h 91% 0 mm 5 W/m2
08:39 10.9 °C 10 °C 1032.1 hPa North 4 km/h 8 km/h 91% 0 mm 5 W/m2
08:44 10.9 °C 10 °C 1032.1 hPa North 4 km/h 9.7 km/h 91% 0 mm 7 W/m2
08:49 10.9 °C 10 °C 1032.1 hPa North 5.3 km/h 9.7 km/h 91% 0 mm 9 W/m2
08:54 10.9 °C 10 °C 1032.1 hPa North 5.1 km/h 9.7 km/h 91% 0 mm 7 W/m2
08:59 10.9 °C 10 °C 1032.1 hPa North 5 km/h 9.7 km/h 91% 0 mm 9 W/m2
09:04 10.9 °C 10 °C 1032.1 hPa North 5.5 km/h 9.7 km/h 91% 0 mm 11 W/m2
09:09 10.9 °C 10.1 °C 1032.1 hPa North 4.8 km/h 11.3 km/h 91% 0 mm 12 W/m2
09:14 11 °C 10.1 °C 1032.1 hPa North 5.1 km/h 9.7 km/h 91% 0 mm 14 W/m2
09:19 11 °C 10.1 °C 1032.1 hPa North 5.1 km/h 9.7 km/h 91% 0 mm 18 W/m2
09:24 11 °C 10.1 °C 1032.4 hPa North 2.1 km/h 8 km/h 91% 0 mm 23 W/m2
09:29 11.1 °C 10.2 °C 1032.4 hPa North 6 km/h 9.7 km/h 90.8% 0 mm 26 W/m2
09:34 11.1 °C 10 °C 1032.4 hPa North 3.4 km/h 6.4 km/h 90% 0 mm 26 W/m2
09:39 11.2 °C 10.1 °C 1032.4 hPa North 1.9 km/h 9.7 km/h 90% 0 mm 26 W/m2
09:44 11.2 °C 10.1 °C 1032.4 hPa North 5.3 km/h 9.7 km/h 90% 0 mm 56 W/m2
09:48 11.3 °C 10.2 °C 1032.4 hPa North 1.6 km/h 4.8 km/h 90% 0 mm 84 W/m2
09:54 11.3 °C 10.2 °C 1032.4 hPa North 3.1 km/h 6.4 km/h 90% 0 mm 77 W/m2
09:59 11.3 °C 10.2 °C 1032.4 hPa North 4.2 km/h 9.7 km/h 90% 0 mm 74 W/m2
10:04 11.3 °C 10.3 °C 1032.4 hPa North 3.2 km/h 9.7 km/h 90% 0 mm 58 W/m2
10:09 11.4 °C 10.3 °C 1032.4 hPa North 3.4 km/h 8 km/h 90% 0 mm 63 W/m2
10:14 11.4 °C 10.3 °C 1032.4 hPa North 1.6 km/h 8 km/h 90% 0 mm 83 W/m2
10:19 11.5 °C 10.4 °C 1032.4 hPa North 0.3 km/h 4.8 km/h 90% 0 mm 86 W/m2
10:24 11.6 °C 10.5 °C 1032.4 hPa North 1.3 km/h 6.4 km/h 90% 0 mm 79 W/m2
10:29 11.6 °C 10.5 °C 1032.4 hPa North 3.2 km/h 6.4 km/h 90% 0 mm 93 W/m2
10:34 11.6 °C 10.5 °C 1032.4 hPa North 5.8 km/h 9.7 km/h 90% 0 mm 121 W/m2
10:39 11.6 °C 10.5 °C 1032.4 hPa North 3.9 km/h 9.7 km/h 90% 0 mm 134 W/m2
10:44 11.7 °C 10.6 °C 1032.4 hPa North 3.2 km/h 8 km/h 90% 0 mm 121 W/m2
10:49 11.7 °C 10.6 °C 1032.4 hPa North 3.5 km/h 9.7 km/h 90% 0 mm 111 W/m2
10:54 11.7 °C 10.6 °C 1032.4 hPa North 4.8 km/h 6.4 km/h 90% 0 mm 100 W/m2
10:59 11.7 °C 10.6 °C 1032.1 hPa North 3.2 km/h 9.7 km/h 90% 0 mm 209 W/m2
11:04 11.8 °C 10.7 °C 1032.1 hPa North 3.4 km/h 8 km/h 90% 0 mm 179 W/m2
11:09 11.8 °C 10.7 °C 1032.1 hPa North 4.8 km/h 9.7 km/h 90% 0 mm 172 W/m2
11:14 11.9 °C 10.8 °C 1032.1 hPa North 5.1 km/h 9.7 km/h 90% 0 mm 109 W/m2
11:19 12 °C 10.9 °C 1032.1 hPa North 4.7 km/h 8 km/h 90% 0 mm 81 W/m2
11:24 12 °C 10.8 °C 1032.1 hPa North 4.3 km/h 11.3 km/h 89.4% 0 mm 56 W/m2
11:29 12.1 °C 10.8 °C 1032.1 hPa North 6 km/h 11.3 km/h 89% 0 mm 51 W/m2
11:34 12 °C 10.7 °C 1032.1 hPa North 6.6 km/h 9.7 km/h 89% 0 mm 56 W/m2
11:39 11.9 °C 10.6 °C 1031.7 hPa North 5.6 km/h 9.7 km/h 89% 0 mm 69 W/m2
11:44 11.9 °C 10.6 °C 1031.7 hPa North 4.2 km/h 9.7 km/h 89% 0 mm 81 W/m2
11:49 12.1 °C 10.8 °C 1031.7 hPa North 2.6 km/h 6.4 km/h 89% 0 mm 53 W/m2
11:54 12.1 °C 10.8 °C 1031.7 hPa North 4.5 km/h 9.7 km/h 89% 0 mm 47 W/m2
11:59 12.1 °C 10.8 °C 1031.7 hPa North 6.4 km/h 11.3 km/h 89% 0 mm 65 W/m2
12:04 12.1 °C 10.8 °C 1031.7 hPa North 5.3 km/h 9.7 km/h 88.6% 0 mm 84 W/m2
12:09 12.1 °C 10.8 °C 1031.7 hPa North 2.7 km/h 9.7 km/h 88.6% 0 mm 102 W/m2
12:14 12.1 °C 10.7 °C 1031.7 hPa North 6.9 km/h 12.9 km/h 88% 0 mm 81 W/m2
12:19 12.1 °C 10.7 °C 1031.7 hPa North 6.8 km/h 12.9 km/h 88.5% 0 mm 74 W/m2
12:24 12 °C 10.7 °C 1031.7 hPa North 8.5 km/h 12.9 km/h 89% 0 mm 77 W/m2
12:29 11.8 °C 10.6 °C 1031.7 hPa North 8 km/h 12.9 km/h 89% 0 mm 81 W/m2
12:34 11.8 °C 10.5 °C 1031.7 hPa North 5.3 km/h 12.9 km/h 89% 0 mm 84 W/m2
12:39 11.8 °C 10.7 °C 1031.7 hPa North 5.5 km/h 11.3 km/h 89.8% 0 mm 72 W/m2
12:44 11.8 °C 10.8 °C 1031.7 hPa North 3.5 km/h 9.7 km/h 90% 0 mm 84 W/m2
12:49 11.9 °C 10.8 °C 1031.7 hPa North 6.1 km/h 11.3 km/h 90% 0 mm 102 W/m2
12:54 11.9 °C 10.8 °C 1031.4 hPa North 5.1 km/h 9.7 km/h 90% 0 mm 107 W/m2
12:59 11.9 °C 10.8 °C 1031.4 hPa North 4.3 km/h 9.7 km/h 90% 0 mm 90 W/m2
13:04 12 °C 10.9 °C 1031.4 hPa North 5.8 km/h 9.7 km/h 90% 0 mm 77 W/m2
13:09 12 °C 10.9 °C 1031.4 hPa North 9 km/h 11.3 km/h 90% 0 mm 60 W/m2
13:14 12 °C 10.9 °C 1031.4 hPa North 2.9 km/h 9.7 km/h 90% 0 mm 62 W/m2
13:19 12 °C 10.9 °C 1031.4 hPa North 7.4 km/h 11.3 km/h 90% 0 mm 47 W/m2
13:24 11.9 °C 10.8 °C 1031.4 hPa North 3.4 km/h 9.7 km/h 90% 0 mm 81 W/m2
13:29 11.9 °C 10.8 °C 1031.4 hPa North 6 km/h 9.7 km/h 90% 0 mm 141 W/m2
13:34 11.9 °C 10.8 °C 1031.4 hPa North 3.9 km/h 8 km/h 90% 0 mm 120 W/m2
13:39 11.9 °C 10.8 °C 1031 hPa North 3.2 km/h 8 km/h 90% 0 mm 76 W/m2
13:44 12 °C 10.9 °C 1031 hPa North 4.5 km/h 8 km/h 90% 0 mm 44 W/m2
13:49 12 °C 10.9 °C 1031 hPa North 4 km/h 11.3 km/h 90% 0 mm 40 W/m2
13:54 11.9 °C 10.8 °C 1031 hPa North 6.3 km/h 11.3 km/h 90% 0 mm 42 W/m2
13:59 11.9 °C 10.8 °C 1031 hPa North 6 km/h 11.3 km/h 90% 0 mm 47 W/m2
14:04 11.9 °C 10.8 °C 1031 hPa North 6.3 km/h 11.3 km/h 90% 0 mm 54 W/m2
14:09 11.9 °C 10.8 °C 1031 hPa North 4.3 km/h 9.7 km/h 90% 0 mm 60 W/m2
14:14 11.9 °C 10.8 °C 1031 hPa North 5 km/h 9.7 km/h 90% 0 mm 60 W/m2
14:19 11.9 °C 10.8 °C 1031 hPa North 5.3 km/h 9.7 km/h 90% 0 mm 60 W/m2
14:24 11.9 °C 10.8 °C 1031 hPa North 5.8 km/h 11.3 km/h 90% 0 mm 60 W/m2
14:29 11.9 °C 10.8 °C 1031 hPa North 5 km/h 9.7 km/h 90% 0 mm 63 W/m2
14:34 11.8 °C 10.7 °C 1031 hPa North 5.8 km/h 9.7 km/h 90% 0 mm 63 W/m2
14:39 11.8 °C 10.7 °C 1031 hPa North 2.9 km/h 6.4 km/h 90% 0 mm 54 W/m2
14:44 11.8 °C 10.6 °C 1031 hPa North 4 km/h 8 km/h 89.2% 0 mm 39 W/m2
14:49 11.9 °C 10.6 °C 1031 hPa North 3.9 km/h 8 km/h 89% 0 mm 47 W/m2
14:54 12 °C 10.7 °C 1031 hPa North 3.7 km/h 8 km/h 89% 0 mm 46 W/m2
14:59 12.1 °C 10.8 °C 1031 hPa North 4 km/h 11.3 km/h 89% 0 mm 37 W/m2
15:04 11.9 °C 10.6 °C 1031 hPa North 5.1 km/h 11.3 km/h 89% 0 mm 32 W/m2
15:09 11.9 °C 10.6 °C 1031 hPa North 4.7 km/h 9.7 km/h 89% 0 mm 32 W/m2
15:14 11.9 °C 10.6 °C 1031 hPa North 3.9 km/h 9.7 km/h 89% 0 mm 30 W/m2
15:19 11.9 °C 10.6 °C 1031 hPa North 5.8 km/h 9.7 km/h 89% 0 mm 21 W/m2
15:24 11.9 °C 10.6 °C 1031 hPa North 3.1 km/h 8 km/h 88.6% 0 mm 11 W/m2
15:29 11.9 °C 10.5 °C 1031 hPa North 3.7 km/h 6.4 km/h 88% 0 mm 12 W/m2
15:34 11.9 °C 10.5 °C 1031 hPa North 3.9 km/h 8 km/h 88% 0 mm 16 W/m2
15:39 11.8 °C 10.4 °C 1031 hPa North 4.8 km/h 8 km/h 88% 0 mm 16 W/m2
15:44 11.8 °C 10.4 °C 1031 hPa North 3.5 km/h 6.4 km/h 88% 0 mm 12 W/m2
15:49 11.8 °C 10.4 °C 1031 hPa North 4 km/h 8 km/h 88% 0 mm 12 W/m2
15:54 11.8 °C 10.4 °C 1031 hPa North 2.1 km/h 6.4 km/h 88% 0 mm 12 W/m2
15:59 11.8 °C 10.4 °C 1031 hPa North 2.6 km/h 4.8 km/h 88% 0 mm 11 W/m2
16:04 11.8 °C 10.3 °C 1031 hPa North 2.1 km/h 4.8 km/h 88% 0 mm 7 W/m2
16:09 11.7 °C 10.3 °C 1031 hPa North 3.1 km/h 6.4 km/h 88% 0 mm 5 W/m2
16:14 11.7 °C 10.3 °C 1031 hPa North 2.7 km/h 6.4 km/h 88% 0 mm 0 W/m2
16:19 11.7 °C 10.3 °C 1031 hPa North 4.3 km/h 6.4 km/h 88% 0 mm 0 W/m2
16:24 11.7 °C 10.3 °C 1031 hPa North 3.2 km/h 6.4 km/h 88% 0 mm 0 W/m2
16:29 11.7 °C 10.3 °C 1031 hPa North 1.3 km/h 4.8 km/h 88% 0 mm 0 W/m2
16:34 11.7 °C 10.2 °C 1030.7 hPa North 2.9 km/h 6.4 km/h 88% 0 mm 0 W/m2
16:39 11.6 °C 10.2 °C 1031 hPa North 2.4 km/h 6.4 km/h 88.4% 0 mm 0 W/m2
16:44 11.6 °C 10.3 °C 1031 hPa North 0.6 km/h 3.2 km/h 89% 0 mm 0 W/m2
16:49 11.6 °C 10.3 °C 1030.7 hPa North 1.4 km/h 4.8 km/h 89% 0 mm 0 W/m2
16:54 11.5 °C 10.2 °C 1030.7 hPa North 3.4 km/h 8 km/h 89% 0 mm 0 W/m2
16:59 11.4 °C 10.1 °C 1030.7 hPa North 3.9 km/h 8 km/h 89% 0 mm 0 W/m2
17:04 11.4 °C 10.1 °C 1030.7 hPa North 2.4 km/h 6.4 km/h 89% 0 mm 0 W/m2
17:09 11.4 °C 10.1 °C 1030.7 hPa North 4 km/h 8 km/h 89% 0 mm 0 W/m2
17:14 11.4 °C 10.1 °C 1030.7 hPa North 2.9 km/h 6.4 km/h 89% 0 mm 0 W/m2
17:19 11.3 °C 10.1 °C 1030.7 hPa North 2.1 km/h 6.4 km/h 89% 0 mm 0 W/m2
17:24 11.3 °C 10.2 °C 1030.7 hPa North 2.1 km/h 6.4 km/h 90% 0 mm 0 W/m2
17:29 11.3 °C 10.2 °C 1031 hPa North 2.6 km/h 4.8 km/h 90% 0 mm 0 W/m2
17:34 11.2 °C 10.2 °C 1031 hPa North 2.9 km/h 4.8 km/h 90% 0 mm 0 W/m2
17:39 11.2 °C 10.1 °C 1031 hPa North 1.9 km/h 4.8 km/h 90% 0 mm 0 W/m2
17:44 11.2 °C 10.1 °C 1031 hPa North 1.8 km/h 4.8 km/h 90% 0 mm 0 W/m2
17:49 11.2 °C 10.1 °C 1031 hPa North 1.9 km/h 4.8 km/h 90% 0 mm 0 W/m2
17:54 11.2 °C 10.1 °C 1031 hPa North 2.9 km/h 4.8 km/h 90% 0 mm 0 W/m2
17:59 11.2 °C 10.1 °C 1031 hPa North 1 km/h 4.8 km/h 90% 0 mm 0 W/m2
18:04 11.1 °C 10 °C 1031 hPa North 2.6 km/h 6.4 km/h 90% 0 mm 0 W/m2
18:09 11.1 °C 10 °C 1031 hPa North 1.4 km/h 4.8 km/h 90% 0 mm 0 W/m2
18:14 11.1 °C 10 °C 1031 hPa North 2.6 km/h 4.8 km/h 90% 0 mm 0 W/m2
18:19 11.1 °C 10 °C 1031 hPa North 3.5 km/h 6.4 km/h 90% 0 mm 0 W/m2
18:24 11.1 °C 10 °C 1030.7 hPa North 2.1 km/h 6.4 km/h 90% 0 mm 0 W/m2
18:29 11.1 °C 10 °C 1030.7 hPa North 1.9 km/h 6.4 km/h 90% 0 mm 0 W/m2
18:34 11.1 °C 10 °C 1030.7 hPa North 1.3 km/h 4.8 km/h 90% 0 mm 0 W/m2
18:39 11 °C 9.9 °C 1031 hPa North 2.4 km/h 4.8 km/h 90% 0 mm 0 W/m2
18:44 11 °C 9.9 °C 1031 hPa North 3.7 km/h 8 km/h 90% 0 mm 0 W/m2
18:49 11 °C 9.9 °C 1030.7 hPa North 3.2 km/h 6.4 km/h 90% 0 mm 0 W/m2
18:54 11 °C 9.9 °C 1030.7 hPa North 3.4 km/h 6.4 km/h 90% 0 mm 0 W/m2
18:59 11 °C 9.9 °C 1030.7 hPa North 3.4 km/h 6.4 km/h 90% 0 mm 0 W/m2
19:04 10.9 °C 9.8 °C 1030.7 hPa North 3.2 km/h 6.4 km/h 90% 0 mm 0 W/m2
19:09 10.9 °C 9.8 °C 1030.7 hPa North 3.2 km/h 6.4 km/h 90% 0 mm 0 W/m2
19:14 10.9 °C 9.8 °C 1030.7 hPa North 2.6 km/h 6.4 km/h 90% 0 mm 0 W/m2
19:19 10.9 °C 9.8 °C 1031 hPa North 4.5 km/h 6.4 km/h 90% 0 mm 0 W/m2
19:24 10.9 °C 9.8 °C 1031 hPa North 5.8 km/h 8 km/h 90% 0 mm 0 W/m2
19:29 10.8 °C 9.7 °C 1031 hPa North 5 km/h 8 km/h 89% 0 mm 0 W/m2
19:34 10.8 °C 9.7 °C 1031 hPa North 4.7 km/h 9.7 km/h 89% 0 mm 0 W/m2
19:39 10.9 °C 9.6 °C 1031 hPa North 2.7 km/h 8 km/h 88.4% 0 mm 0 W/m2
19:44 10.9 °C 9.5 °C 1031 hPa North 2.1 km/h 4.8 km/h 88% 0 mm 0 W/m2
19:49 10.9 °C 9.5 °C 1031 hPa North 1 km/h 4.8 km/h 88% 0 mm 0 W/m2
19:54 10.9 °C 9.5 °C 1031 hPa Calm   1.6 km/h 88% 0 mm 0 W/m2
19:59 10.9 °C 9.5 °C 1031 hPa Calm     88% 0 mm 0 W/m2
20:04 10.9 °C 9.5 °C 1031 hPa Calm     88% 0 mm 0 W/m2
20:09 10.9 °C 9.5 °C 1031 hPa Calm     88% 0 mm 0 W/m2
20:14 10.9 °C 9.4 °C 1031 hPa Calm     87.8% 0 mm 0 W/m2
20:19 10.9 °C 9.4 °C 1030.7 hPa North 1 km/h 3.2 km/h 87.4% 0 mm 0 W/m2
20:24 10.9 °C 9.3 °C 1030.7 hPa North 1.4 km/h 4.8 km/h 87% 0 mm 0 W/m2
20:28 10.9 °C 9.3 °C 1030.7 hPa North 0.8 km/h 3.2 km/h 87% 0 mm 0 W/m2
20:34 10.9 °C 9.3 °C 1030.7 hPa North 0.3 km/h 1.6 km/h 87% 0 mm 0 W/m2
20:39 10.9 °C 9.4 °C 1030.7 hPa Calm   1.6 km/h 87.8% 0 mm 0 W/m2
20:44 10.9 °C 9.4 °C 1030.7 hPa North 0.3 km/h 1.6 km/h 87.2% 0 mm 0 W/m2
20:49 10.9 °C 9.4 °C 1030.7 hPa Calm     87.4% 0 mm 0 W/m2
20:54 10.9 °C 9.4 °C 1030.7 hPa North 0.6 km/h 3.2 km/h 87.8% 0 mm 0 W/m2
20:59 10.9 °C 9.5 °C 1030.7 hPa North 1 km/h 3.2 km/h 88% 0 mm 0 W/m2
21:04 10.9 °C 9.5 °C 1030.7 hPa Calm   1.6 km/h 88% 0 mm 0 W/m2
21:09 10.9 °C 9.5 °C 1030.7 hPa Calm     88% 0 mm 0 W/m2
21:14 10.9 °C 9.5 °C 1030.7 hPa Calm     88% 0 mm 0 W/m2
21:19 10.9 °C 9.5 °C 1030.4 hPa Calm     88% 0 mm 0 W/m2
21:24 10.9 °C 9.5 °C 1030.4 hPa Calm     88% 0 mm 0 W/m2
21:29 10.9 °C 9.5 °C 1030.4 hPa Calm     88% 0 mm 0 W/m2
21:34 10.9 °C 9.5 °C 1030.4 hPa Calm     88% 0 mm 0 W/m2
21:39 10.9 °C 9.5 °C 1030.4 hPa Calm     88% 0 mm 0 W/m2
21:44 10.9 °C 9.5 °C 1030.4 hPa Calm     88% 0 mm 0 W/m2
21:49 10.9 °C 9.5 °C 1030.4 hPa Calm     88% 0 mm 0 W/m2
21:54 10.9 °C 9.5 °C 1030.4 hPa Calm     88% 0 mm 0 W/m2
21:59 10.9 °C 9.5 °C 1030.4 hPa Calm     88% 0 mm 0 W/m2
22:04 10.8 °C 9.4 °C 1030.4 hPa Calm     88% 0 mm 0 W/m2
22:09 10.9 °C 9.5 °C 1030.4 hPa Calm     88% 0 mm 0 W/m2
22:14 10.8 °C 9.4 °C 1030.4 hPa North 1 km/h 3.2 km/h 88% 0 mm 0 W/m2
22:19 10.8 °C 9.5 °C 1030 hPa North 0.6 km/h 3.2 km/h 88.4% 0 mm 0 W/m2
22:24 10.7 °C 9.6 °C 1030 hPa Calm   3.2 km/h 89% 0 mm 0 W/m2
22:29 10.7 °C 9.5 °C 1030 hPa Calm     89% 0 mm 0 W/m2
22:34 10.7 °C 9.5 °C 1030 hPa Calm     89% 0 mm 0 W/m2
22:39 10.7 °C 9.5 °C 1030 hPa Calm     89% 0 mm 0 W/m2
22:44 10.7 °C 9.5 °C 1030 hPa Calm     89% 0 mm 0 W/m2
22:49 10.7 °C 9.5 °C 1030 hPa Calm     89% 0 mm 0 W/m2
22:54 10.7 °C 9.5 °C 1030 hPa Calm     89% 0 mm 0 W/m2
22:59 10.7 °C 9.5 °C 1030 hPa North 1 km/h 4.8 km/h 89% 0 mm 0 W/m2
23:04 10.7 °C 9.5 °C 1030 hPa North 0.6 km/h 4.8 km/h 89% 0 mm 0 W/m2
23:09 10.7 °C 9.5 °C 1030 hPa Calm     89% 0 mm 0 W/m2
23:14 10.7 °C 9.5 °C 1030 hPa North 1.3 km/h 3.2 km/h 89% 0 mm 0 W/m2
23:19 10.7 °C 9.5 °C 1029.7 hPa North 1.4 km/h 4.8 km/h 89% 0 mm 0 W/m2
23:24 10.7 °C 9.5 °C 1029.7 hPa North 1.3 km/h 4.8 km/h 89% 0 mm 0 W/m2
23:29 10.7 °C 9.5 °C 1030 hPa North 0.6 km/h 3.2 km/h 89% 0 mm 0 W/m2
23:34 10.7 °C 9.5 °C 1030 hPa Calm   1.6 km/h 89% 0 mm 0 W/m2
23:39 10.7 °C 9.5 °C 1029.7 hPa North 1.6 km/h 6.4 km/h 89% 0 mm 0 W/m2
23:44 10.7 °C 9.5 °C 1029.7 hPa North 0.6 km/h 3.2 km/h 89% 0 mm 0 W/m2
23:49 10.7 °C 9.5 °C 1029.7 hPa North 0.6 km/h 3.2 km/h 89% 0 mm 0 W/m2
23:53 10.7 °C 9.5 °C 1029.7 hPa North 1.4 km/h 3.2 km/h 89% 0 mm 0 W/m2
23:59 10.7 °C 9.5 °C 1029.7 hPa North 1.3 km/h 6.4 km/h 89% 0 mm 0 W/m2
Bath Spa Weather
Compliments of Weather Underground - 2 mb